Regional Weather Roundup
Issued by NWS

Home | Current Version | Previous Version | Graphics & Text | Print | Product List | Glossary On
Versions: 1 2 3 4 5 6 7 8 9 10 11 12 13 14 15 16 17 18 19 20 21 22 23 24 25 26 27 28 29 30 31 32 33 34 35 36 37 38 39 40 41 42 43 44 45 46 47 48 49 50
000
ASUS43 KLOT 132303
RWRIL

ILLINOIS REGIONAL WEATHER ROUNDUP
NATIONAL WEATHER SERVICE CHICAGO/ROMEOVILLE IL
500 PM CST WED DEC 13 2017

NOTE: "FAIR" INDICATES FEW OR NO CLOUDS BELOW 12,000 FEET WITH NO
SIGNIFICANT WEATHER AND/OR OBSTRUCTIONS TO VISIBILITY.

* THESE STATIONS ARE NOT UNDER NWS QUALITY CONTROL. THEY ALSO MAY NOT
  REPORT WEATHER SUCH AS PRECIPITATION OR FOG.

ILZ001-002-007-009-015-016-024-140000-
NORTHWEST ILLINOIS

CITY           SKY/WX    TMP DP  RH WIND       PRES   REMARKS
MOLINE         CLOUDY    37  26  64 NW25G44   29.57R WCI  25
STERLING*      CLOUDY    32  25  75 NW26G36   29.51R WCI  18
SAVANNA*       CLOUDY    31  24  73 NW18G24   29.55R WCI  19
$$

ILZ003-004-008-010-011-017-018-140000-
NORTH CENTRAL ILLINOIS

CITY           SKY/WX    TMP DP  RH WIND       PRES   REMARKS
ROCKFORD       CLOUDY    31  21  66 NW25G32   29.49R WCI  17
FREEPORT*      CLOUDY    29  21  73 NW22G35   29.52R WCI  16
DE KALB*       CLOUDY    32  24  72 NW22G30   29.44R WCI  19
PERU*          CLOUDY    34  26  72 NW29G39   29.49R WCI  20
$$

ILZ005-006-012>014-019>023-140000-
NORTHEAST ILLINOIS

CITY           SKY/WX    TMP DP  RH WIND       PRES   REMARKS
CHICAGO-OHARE  CLOUDY    34  23  64 NW26G37   29.37R WCI  21
CHICAGO-MIDWAY FLURRIES  35  26  69 NW16G31   29.37R WCI  25
AURORA         CLOUDY    33  25  72 NW24G35   29.43R WCI  20
LANSING*       CLOUDY    35  30  82 NW16G23   29.36R WCI  25
JOLIET*        CLOUDY    35  27  71 NW15G25   29.43R WCI  25
WAUKEGAN       CLOUDY    30  23  75 NW14G28   29.38R WCI  19
DUPAGE AIRPORT CLOUDY    32  25  75 NW22G31   29.41R WCI  19
KANKAKEE*      CLOUDY    37  29  72 NW23G35   29.42R WCI  26
WHEELING       CLOUDY    34  25  69 NW22G30   29.39R WCI  22
MORRIS*        CLOUDY    34  27  74 NW15G22   29.44R WCI  24
ROMEOVILLE*    CLOUDY    33  26  75 NW18G36   29.41R WCI  22
NORTHERLY ISL    N/A     35  25  67 W17         N/A  WCI  25
$$

LMZ740>746-140000-
SOUTHERN LAKE MICHIGAN

STATION/POSITION SKY/WX   TEMP    WIND        PRES    VSBY  WAVE
                          AIR SEA DIR/SP/G                  HT/PER
                          (F)     (DEG/KT/KT) (MB)    (MI)  (FT/S)
HARRISON CRIB              36     310/ 25/ 28   N/A
BURNHAM HARBOR             35     290/ 17/ 20   N/A
CALUMET HARBOR             35     280/ 16/ 24  993.4R
BURNS HARBOR               36     300/ 24/ 31  993.6R
MICHIGAN CITY              35     270/ 32/ 35   N/A
$$

ILZ025>027-034>036-040-047-049-050-058-095>099-140000-
WEST-CENTRAL ILLINOIS

CITY           SKY/WX    TMP DP  RH WIND       PRES   REMARKS
QUINCY         MOCLDY    43  29  57 NW29G39   29.67R
GALESBURG*     CLOUDY    36  31  81 W25G37    29.60R WCI  24
MACOMB*        CLOUDY    37  30  76 NW29      29.65R WCI  24
JACKSONVILLE*  CLOUDY    41  31  66 NW25G36   29.64R
PITTSFIELD*    MOCLDY    45  32  61 NW17G23   29.66R
$$

ILZ028>032-037-038-041>044-048-051>054-059>061-140000-
CENTRAL ILLINOIS

CITY           SKY/WX    TMP DP  RH WIND       PRES   REMARKS
PONTIAC        CLOUDY    37  30  74 W26G38    29.47R WCI  26
BLOOMINGTON    CLOUDY    39  29  67 W37G45    29.51R WCI  26
DECATUR        CLOUDY    40  31  70 W20G37    29.57R
PEORIA         CLOUDY    38  31  76 W22G35    29.57R WCI  27
LACON*         CLOUDY    37  27  69 NW22G30   29.52R WCI  25
LINCOLN*       CLOUDY    40  32  72 W15G36    29.57R
SPRINGFIELD    CLOUDY    42  32  67 NW20G25   29.61R
TAYLORVILLE    CLOUDY    42  33  68 NW24G35   29.60R
$$

ILZ033-039-045-046-055>057-062-063-140000-
EAST-CENTRAL ILLINOIS

CITY           SKY/WX    TMP DP  RH WIND       PRES   REMARKS
CHAMPAIGN      CLOUDY    40  32  73 W32G44    29.50R
DANVILLE*      CLOUDY    40  32  74 W26G37    29.42R
RANTOUL*       CLOUDY    41  33  73 W30G39    29.46R
MATTOON        CLOUDY    42  34  73 W28G45    29.54R
PARIS*         CLOUDY    41  34  75 W28G38    29.52R
$$

ILZ079-100>102-140000-
SOUTHWEST ILLINOIS

CITY           SKY/WX    TMP DP  RH WIND       PRES   REMARKS
ALTON          PTCLDY    48  36  61 NW14G22   29.63R
BELLEVILLE     CLEAR     52  33  47 NW14G24   29.61R
CAHOKIA*       CLEAR     52  31  44 NW10      29.63R
SPARTA*        CLEAR     53  32  45 W12       29.63R
$$

ILZ064>066-069>071-074>076-080>082-084>086-088>090-092>094-140000-
SOUTH-CENTRAL ILLINOIS

CITY           SKY/WX    TMP DP  RH WIND       PRES   REMARKS
CARBONDALE     CLEAR     44  25  47 SW6       29.64R
CAIRO*         CLEAR     49  29  45 SW12G17   29.67S
EFFINGHAM*     CLOUDY    47  35  63 W21G30    29.58R
MARION         PTCLDY    50  23  34 SW12      29.64R
MT. VERNON     MOCLDY    54  30  40 W9        29.59R
CENTRALIA*     CLOUDY    55  33  44 W16       29.58R
SALEM*         CLOUDY    53  32  45 W13       29.58R
METROPOLIS*    CLEAR     49  27  42 SW10G18   29.67R
$$

ILZ067-068-072-073-078-083-087-091-140000-
SOUTHEAST ILLINOIS

CITY           SKY/WX    TMP DP  RH WIND       PRES   REMARKS
LAWRENCEVILLE  CLOUDY    49  25  39 SW17      29.54R
FLORA*         CLOUDY    54  32  43 W10       29.56R
FAIRFIELD*     CLOUDY    49  27  42 SW8       29.57R
HARRISBURG*    CLEAR     47  26  44 SW13      29.63R
ROBINSON*      CLOUDY    47  28  48 W20G26    29.53R
CARMI*         CLOUDY    48  26  43 SW16G23   29.59S
$$

ABBREVIATIONS USED IN REMARKS
   TC - TEMPERATURE IN CELSIUS
  WCI - WIND CHILL INDEX
   HX - HEAT INDEX
  VSB - VISIBILITY
$$




USA.gov is the U.S. government's official web portal to all federal, state and local government web resources and services.